| time (UTC) | temp F | wind direction | speed knots | gust knots | rain 1hr in | rain 24hr in | rain mn in | humidity % | barometer mb |
| 20260504185014 | 75 | 235 | 7.0 | 15.6 | 0.00 | 0.00 | 0.00 | 37 | 1010.4 |
| 20260504184014 | 76 | 272 | 5.2 | 12.2 | 0.00 | 0.00 | 0.00 | 35 | 1010.7 |
| 20260504183014 | 76 | 213 | 5.2 | 13.0 | 0.00 | 0.00 | 0.00 | 36 | 1010.7 |
| 20260504182014 | 75 | 299 | 5.2 | 8.7 | 0.00 | 0.00 | 0.00 | 37 | 1010.8 |
| 20260504181014 | 76 | 175 | 4.3 | 8.7 | 0.00 | 0.00 | 0.00 | 35 | 1010.9 |
| 20260504180015 | 76 | 242 | 3.5 | 11.3 | 0.00 | 0.00 | 0.00 | 37 | 1011.1 |
| 20260504175014 | 76 | 234 | 4.3 | 9.6 | 0.00 | 0.00 | 0.00 | 36 | 1011.4 |
| 20260504174014 | 75 | 240 | 3.5 | 7.8 | 0.00 | 0.00 | 0.00 | 38 | 1011.5 |
| 20260504173014 | 74 | 262 | 3.5 | 7.0 | 0.00 | 0.00 | 0.00 | 37 | 1011.6 |
| 20260504172014 | 74 | 245 | 3.5 | 7.8 | 0.00 | 0.00 | 0.00 | 38 | 1011.7 |
| 20260504171014 | 74 | 205 | 4.3 | 9.6 | 0.00 | 0.00 | 0.00 | 37 | 1011.8 |
| 20260504151014 | 68 | 225 | 1.7 | 9.6 | 0.00 | 0.00 | 0.00 | 43 | 1013.5 |
| 20260504141013 | 61 | 246 | 0.9 | 2.6 | 0.00 | 0.00 | 0.00 | 47 | 1014.1 |
| 20260504081012 | 37 | 283 | 0.0 | 0.0 | 0.00 | 0.00 | 0.00 | 81 | 1015.0 |
| 20260504050014 | 42 | 283 | 0.0 | 0.0 | 0.00 | 0.00 | 0.00 | 74 | 1015.2 |
| 20260504045013 | 42 | 283 | 0.0 | 0.0 | 0.00 | 0.00 | 0.00 | 74 | 1015.2 |
| 20260504044015 | 42 | 283 | 0.0 | 0.0 | 0.00 | 0.00 | 0.00 | 74 | 1015.3 |
| 20260504043015 | 42 | 283 | 0.0 | 0.0 | 0.00 | 0.00 | 0.00 | 73 | 1015.3 |
| 20260504042015 | 43 | 283 | 0.0 | 0.0 | 0.00 | 0.00 | 0.00 | 72 | 1015.4 |
| 20260504041015 | 43 | 283 | 0.0 | 0.0 | 0.00 | 0.00 | 0.00 | 70 | 1015.3 |
| 20260504040018 | 43 | 283 | 0.0 | 1.7 | 0.00 | 0.00 | 0.00 | 70 | 1015.5 |
| 20260504035015 | 44 | 283 | 0.0 | 0.9 | 0.00 | 0.00 | 0.00 | 72 | 1015.5 |
| 20260504034016 | 44 | 283 | 0.0 | 1.7 | 0.00 | 0.00 | 0.00 | 70 | 1015.2 |
| 20260504033015 | 44 | 283 | 0.0 | 0.9 | 0.00 | 0.00 | 0.00 | 70 | 1015.0 |
| 20260504032015 | 44 | 283 | 0.9 | 2.6 | 0.00 | 0.00 | 0.00 | 68 | 1015.0 |
| 20260504031015 | 45 | 283 | 0.0 | 0.0 | 0.00 | 0.00 | 0.00 | 69 | 1015.0 |
| 20260504030015 | 45 | 283 | 0.0 | 0.0 | 0.00 | 0.00 | 0.00 | 68 | 1015.1 |
| 20260504025015 | 45 | 283 | 0.0 | 0.0 | 0.00 | 0.00 | 0.00 | 68 | 1015.0 |
| 20260504024015 | 46 | 283 | 0.0 | 0.0 | 0.00 | 0.00 | 0.00 | 68 | 1015.0 |
| 20260504023015 | 46 | 283 | 0.0 | 0.0 | 0.00 | 0.00 | 0.00 | 67 | 1015.1 |
| 20260504022014 | 47 | 283 | 0.0 | 0.0 | 0.00 | 0.00 | 0.00 | 65 | 1014.9 |
| 20260504021014 | 47 | 283 | 0.0 | 0.0 | 0.00 | 0.00 | 0.00 | 65 | 1014.9 |
| 20260504020015 | 48 | 283 | 0.0 | 0.0 | 0.00 | 0.00 | 0.00 | 63 | 1015.0 |
| 20260504015014 | 49 | 283 | 0.0 | 0.0 | 0.00 | 0.00 | 0.00 | 63 | 1014.9 |
| 20260504014014 | 50 | 283 | 0.0 | 0.0 | 0.00 | 0.00 | 0.00 | 61 | 1014.8 |
| 20260504013014 | 50 | 283 | 0.0 | 0.0 | 0.00 | 0.00 | 0.00 | 58 | 1014.7 |
| 20260504012014 | 51 | 283 | 0.0 | 0.0 | 0.00 | 0.00 | 0.00 | 57 | 1014.7 |
| 20260504011015 | 52 | 283 | 0.0 | 0.0 | 0.00 | 0.00 | 0.00 | 54 | 1014.6 |
| 20260504010014 | 53 | 283 | 0.0 | 0.0 | 0.00 | 0.00 | 0.00 | 52 | 1014.4 |
| 20260504005016 | 54 | 283 | 0.0 | 0.0 | 0.00 | 0.00 | 0.00 | 50 | 1014.5 |
| 20260504004014 | 55 | 283 | 0.0 | 0.0 | 0.00 | 0.00 | 0.00 | 46 | 1014.5 |
| 20260504003014 | 56 | 283 | 0.0 | 0.0 | 0.00 | 0.00 | 0.00 | 44 | 1014.3 |
| 20260504002014 | 57 | 283 | 0.9 | 1.7 | 0.00 | 0.00 | 0.00 | 42 | 1014.2 |
| 20260504001014 | 58 | 283 | 0.0 | 1.7 | 0.00 | 0.00 | 0.00 | 41 | 1014.2 |
| 20260504000014 | 58 | 283 | 1.7 | 3.5 | 0.00 | 0.00 | 0.00 | 39 | 1014.1 |
| 20260503235014 | 59 | 288 | 1.7 | 7.0 | 0.00 | 0.00 | 0.00 | 38 | 1014.0 |
| 20260503234014 | 59 | 267 | 3.5 | 7.0 | 0.00 | 0.00 | 0.00 | 37 | 1013.9 |
| 20260503233014 | 60 | 288 | 3.5 | 10.4 | 0.00 | 0.00 | 0.00 | 36 | 1013.8 |
| 20260503232014 | 60 | 288 | 3.5 | 7.0 | 0.00 | 0.00 | 0.00 | 36 | 1013.8 |
| 20260503231014 | 60 | 261 | 4.3 | 13.0 | 0.00 | 0.00 | 0.00 | 35 | 1013.7 |
| 20260503230014 | 61 | 269 | 4.3 | 9.6 | 0.00 | 0.00 | 0.00 | 36 | 1013.7 |
| 20260503225014 | 61 | 290 | 3.5 | 8.7 | 0.00 | 0.00 | 0.00 | 35 | 1013.8 |
| 20260503224014 | 61 | 263 | 5.2 | 11.3 | 0.00 | 0.00 | 0.00 | 34 | 1013.8 |
| 20260503223014 | 61 | 243 | 5.2 | 12.2 | 0.00 | 0.00 | 0.00 | 34 | 1013.8 |
| 20260503222014 | 61 | 253 | 5.2 | 12.2 | 0.00 | 0.00 | 0.00 | 34 | 1013.8 |
| 20260503221014 | 62 | 252 | 5.2 | 12.2 | 0.00 | 0.00 | 0.00 | 34 | 1013.8 |
| 20260503220015 | 61 | 247 | 6.1 | 12.2 | 0.00 | 0.00 | 0.00 | 34 | 1013.7 |
| 20260503215014 | 61 | 247 | 6.1 | 15.6 | 0.00 | 0.00 | 0.00 | 35 | 1013.8 |
| 20260503214014 | 61 | 333 | 4.3 | 10.4 | 0.00 | 0.00 | 0.00 | 34 | 1013.7 |
| 20260503213013 | 61 | 309 | 3.5 | 12.2 | 0.00 | 0.00 | 0.00 | 35 | 1013.8 |
| 20260503212013 | 61 | 294 | 7.0 | 16.5 | 0.00 | 0.00 | 0.00 | 34 | 1013.7 |
| 20260503211014 | 62 | 288 | 5.2 | 13.0 | 0.00 | 0.00 | 0.00 | 35 | 1013.6 |
| 20260503210014 | 62 | 5 | 5.2 | 13.0 | 0.00 | 0.00 | 0.00 | 34 | 1013.7 |
| 20260503205014 | 62 | 278 | 5.2 | 11.3 | 0.00 | 0.00 | 0.00 | 35 | 1013.7 |
| 20260503204014 | 62 | 295 | 6.1 | 13.0 | 0.00 | 0.00 | 0.00 | 35 | 1013.7 |
| 20260503203015 | 62 | 251 | 7.8 | 16.5 | 0.00 | 0.00 | 0.00 | 34 | 1013.7 |
| 20260503202014 | 62 | 272 | 4.3 | 13.9 | 0.00 | 0.00 | 0.00 | 37 | 1013.8 |
| 20260503201014 | 61 | 258 | 3.5 | 7.8 | 0.00 | 0.00 | 0.00 | 35 | 1013.9 |
| 20260503200014 | 60 | 264 | 5.2 | 16.5 | 0.00 | 0.00 | 0.00 | 34 | 1014.0 |
| 20260503195014 | 60 | 30 | 3.5 | 9.6 | 0.00 | 0.00 | 0.00 | 35 | 1014.1 |
| 20260503194014 | 62 | 318 | 6.1 | 18.2 | 0.00 | 0.00 | 0.00 | 33 | 1014.2 |
| 20260503193014 | 61 | 229 | 5.2 | 12.2 | 0.00 | 0.00 | 0.00 | 34 | 1014.3 |
| 20260503192013 | 61 | 290 | 6.1 | 16.5 | 0.00 | 0.00 | 0.00 | 34 | 1014.3 |
| 20260503191014 | 62 | 262 | 4.3 | 10.4 | 0.00 | 0.00 | 0.00 | 36 | 1014.4 |
| 20260503190012 | 61 | 292 | 5.2 | 12.2 | 0.00 | 0.00 | 0.00 | 34 | 1014.7 |